Regional Weather Roundup
Issued by NWS

Home | Current Version | Previous Version | Graphics & Text | Print | Product List | Glossary Off
Versions: 1 2 3 4 5 6 7 8 9 10 11 12 13 14 15 16 17 18 19 20 21 22 23 24 25 26 27 28 29 30 31 32 33 34 35 36 37 38 39 40 41 42 43 44 45 46 47 48 49 50

000
ASUS45 KPSR 051610
RWRAZ

ARIZONA HOURLY REGIONAL WEATHER ROUNDUP
NATIONAL WEATHER SERVICE PHOENIX AZ
900 AM MST SAT SEP 05 2015

NOTE: FAIR INDICATES FEW OR NO CLOUDS BELOW 12,000 FEET WITH NO
SIGNIFICANT WEATHER AND/OR OBSTRUCTIONS TO VISIBILITY.

AZZ001>003-036-051700-
NORTHWEST ARIZONA

CITY           SKY/WX    TMP DP  RH WIND       PRES   REMARKS
BULLHEAD CITY  SUNNY     86  59  39 S17G24    29.84F
KINGMAN        SUNNY     80  46  30 SW17      29.99S
$$

AZZ004>008-015-016-018-051700-
NORTH CENTRAL ARIZONA

CITY           SKY/WX    TMP DP  RH WIND       PRES   REMARKS
GRAND CANYON   MOSUNNY   64  53  67 S15       30.21R
WILLIAMS       SUNNY     64  52  63 SW13      30.26S
PRESCOTT       PTSUNNY   71  59  65 SE9       30.13S
FLAGSTAFF      CLOUDY    59  55  87 SW7       30.25R
PAYSON         PTSUNNY   68  57  68 CALM      30.17S
PAGE           SUNNY     75  53  46 CALM      30.04S
$$

AZZ009>014-017-051700-
NORTHEAST ARIZONA

CITY           SKY/WX    TMP DP  RH WIND       PRES   REMARKS
WINSLOW        PTSUNNY   70  57  63 S7        30.14S
SAINT JOHNS    CLOUDY    63  56  78 CALM      30.19R
WINDOW ROCK    CLOUDY    64  54  69 CALM      30.25S
SHOW LOW       CLOUDY    63  50  63 S8        30.24R
$$

AZZ023-051700-
GREATER PHOENIX AREA

CITY           SKY/WX    TMP DP  RH WIND       PRES   REMARKS
PHOENIX        PTSUNNY   84  66  54 SE8       29.90R
BUCKEYE        SUNNY     82  68  61 SE8       29.90R
GLENDALE       PTSUNNY   84  66  54 CALM      29.92R
LUKE AFB       SUNNY     84  66  55 E2        29.90R
DEER VALLEY    MOSUNNY   82  63  52 S6        29.92R
SCOTTSDALE     MOSUNNY   81  65  58 S5        29.95R
MESA-FALCON    MOSUNNY   82  63  51 E9        29.92R
MESA-GATEWAY   PTSUNNY   81  66  61 SE10      29.95R
CHANDLER       PTSUNNY   82  66  57 S8        29.92R
$$

AZZ027-028-051700-
SOUTHWEST MARICOPA COUNTY AND PINAL COUNTY

CITY           SKY/WX    TMP DP  RH WIND       PRES   REMARKS
CASA GRANDE    CLOUDY    79  66  65 S7        29.94R
GILA BEND      FAIR      86  63  46 SE9       29.88R
$$

AZZ503-504-507>509-051700-
SOUTHEAST ARIZONA

CITY           SKY/WX    TMP DP  RH WIND       PRES   REMARKS
TUCSON         LGT RAIN  73  65  75 SE7       30.07R
DAVIS-MONTHAN  CLOUDY    72  69  89 S3        30.06R
RYAN FIELD     LGT RAIN  72  72 100 E6        30.05
NOGALES        LGT RAIN  69  64  84 NE5       30.11R
SIERRA VISTA   CLOUDY    67  63  89 E1        30.17R
DOUGLAS        CLOUDY    69  64  84 N3        30.12R
SAFFORD        CLOUDY    70  66  87 S5        30.06R
$$

AZZ020-021-025-026-031-051700-
SOUTHWEST ARIZONA

CITY           SKY/WX    TMP DP  RH WIND       PRES   REMARKS
YUMA           MOSUNNY   88  71  57 SE14      29.83R
$$

CAZ031-033-041-043-047-048-061-051700-
SOUTHERN CALIFORNIA

CITY           SKY/WX    TMP DP  RH WIND       PRES   REMARKS
DOWNTOWN L.A.  MOSUNNY   72  58  61 VRB3      29.92R
L.A. AIRPORT   PTSUNNY   69  60  73 VRB5      29.92R
SAN DIEGO      MOSUNNY   72  56  57 CALM      29.92S
BURBANK        SUNNY     68  58  70 CALM      29.93R
ONTARIO        MOSUNNY   66  57  72 SW3       29.93S
RIVERSIDE      MOSUNNY   67  57  70 CALM      29.93S
PALM SPRINGS   SUNNY     82  50  32 CALM      29.86R
EL CENTRO NAS  SUNNY     85  69  58 VRB3      29.83R
IMPERIAL       SUNNY     85  71  63 VRB3      29.81R
BLYTHE         SUNNY     85  70  60 S9        29.85R
NEEDLES        SUNNY     88  61  40 SW16      29.85S
$$

NVZ020-UTZ003-051700-
SOUTHERN NEVADA-UTAH

CITY           SKY/WX    TMP DP  RH WIND       PRES   REMARKS
LAS VEGAS      MOSUNNY   79  35  20 S10       29.86R
SALT LAKE CITY PTSUNNY   78  38  23 S26G38    29.88F
$$

NMZ009-TXZ055-051700-
NEW MEXICO-WEST TEXAS

CITY           SKY/WX    TMP DP  RH WIND       PRES   REMARKS
ALBUQUERQUE    PTSUNNY   72  55  55 CALM      30.20R
EL PASO        PTSUNNY   82  55  39 VRB6      30.07R
$$


........................KEY........................
SKY/WX - SKY CONDITION/WEATHER
TMP    - TEMPERATURE IN FAHRENHEIT
DP     - DEW POINT IN FAHRENHEIT
RH     - RELATIVE HUMIDITY IN PERCENT
WIND   - DIRECTION AND SPEED IN MILES PER HOUR (MPH)
VRB    - VARIABLE WIND DIRECTION
PRES   - MEAN SEA LEVEL PRESSURE IN INCHES OF MERCURY
         F - FALLING PRESSURE   R - RISING PRESSURE
         S - STEADY PRESSURE
VSB    - VISIBILITY IN MILES
HX     - HEAT INDEX IN FAHRENHEIT
WCI    - WIND CHILL INDEX IN FAHRENHEIT
TC     - TEMPERATURE IN CELSIUS WHICH IS ALSO KNOWN AS
         TEMPERATURE IN CENTIGRADE
AFB    - AIR FORCE BASE
         LUKE AFB IS LUKE AIR FORCE BASE
         DAVIS-MONTHAN IS DAVIS-MONTHAN AIR FORCE BASE
NAS    - NAVAL AIR STATION
         EL CENTRO NAS IS EL CENTRO NAVAL AIR STATION
N/A    - NOT AVAILABLE




USA.gov is the U.S. government's official web portal to all federal, state and local government web resources and services.